FW9465 Weather Reports


Display with metric or nautical units.
time (UTC)temp
F
wind
direction
speed
MPH
gust
MPH
rain 1hr
in
rain 24hr
in
rain mn
in
humidity
%
barometer
mb
20260508190124 71 149 4.0 6.0 0.00 0.00 0.00 68 1011.2
20260508185224 71 155 7.0 10.0 0.00 0.00 0.00 67 1011.2
20260508184227 71 159 8.0 11.0 0.00 0.00 0.00 66 1011.4
20260508182325 72 152 9.0 13.0 0.00 0.00 0.00 64 1011.6
20260508181326 73 165 9.0 13.0 0.00 0.00 0.00 62 1011.7
20260508180326 73 156 4.0 5.0 0.00 0.00 0.00 62 1011.8
20260508175425 73 128 5.0 8.0 0.00 0.00 0.00 62 1011.9
20260508174426 72 133 3.0 6.0 0.00 0.00 0.00 64 1012.0
20260508173425 71 90 4.0 5.0 0.00 0.00 0.00 64 1012.1
20260508172426 71 141 5.0 6.0 0.00 0.00 0.00 64 1012.4
20260508171426 71 142 4.0 7.0 0.00 0.00 0.00 63 1012.7
20260508170525 71 157 6.0 10.0 0.00 0.00 0.00 62 1012.7
20260508165525 72 155 4.0 8.0 0.00 0.00 0.00 61 1012.8
20260508164526 71 129 3.0 9.0 0.00 0.00 0.00 64 1012.8
20260508163624 70 135 2.0 8.0 0.00 0.00 0.00 65 1013.1
20260508162624 69 122 0.0 6.0 0.00 0.00 0.00 66 1013.1
20260508161640 68 159 6.0 9.0 0.00 0.00 0.00 68 1013.3
20260508160626 67 157 4.0 9.0 0.00 0.00 0.00 69 1013.6
20260508155724 67 158 3.0 6.0 0.00 0.00 0.00 69 1013.7
20260508154726 67 147 6.0 8.0 0.00 0.00 0.00 68 1013.7
20260508153724 67 148 4.0 7.0 0.00 0.00 0.00 69 1014.0
20260508152741 67 157 7.0 9.0 0.00 0.00 0.00 69 1013.8
20260508151725 67 140 6.0 10.0 0.00 0.00 0.00 68 1013.9
20260508150824 66 157 5.0 8.0 0.00 0.00 0.00 69 1014.2
20260508145825 66 169 4.0 9.0 0.00 0.00 0.00 68 1014.2
20260508144923 66 158 4.0 7.0 0.00 0.00 0.00 68 1014.3
20260508142925 66 148 2.0 4.0 0.00 0.00 0.00 68 1014.2
20260508140924 65 153 4.0 5.0 0.00 0.00 0.00 71 1014.4
20260508135925 65 140 3.0 4.0 0.00 0.00 0.00 69 1014.5
20260508134925 66 157 5.0 7.0 0.00 0.00 0.00 70 1014.5
20260508133941 64 158 4.0 6.0 0.00 0.00 0.00 74 1014.5
20260508132941 63 157 2.0 4.0 0.00 0.00 0.00 76 1014.4
20260508132025 62 135 1.0 4.0 0.00 0.00 0.00 78 1014.5
20260508131025 61 157 5.0 7.0 0.00 0.00 0.00 85 1014.3
20260508130025 59 112 0.0 0.0 0.00 0.00 0.00 87 1014.5
20260508125024 59 118 0.0 3.0 0.00 0.00 0.00 89 1014.5
20260508124024 58 135 0.0 0.0 0.00 0.00 0.00 88 1014.6
20260508123025 57 135 0.0 0.0 0.00 0.00 0.00 88 1014.6
20260508122026 57 135 0.0 0.0 0.00 0.00 0.00 88 1014.7
20260508121025 57 135 0.0 0.0 0.00 0.00 0.00 88 1014.6
20260508120124 58 135 1.0 3.0 0.00 0.00 0.00 87 1014.4
20260508115125 58 114 0.0 0.0 0.00 0.00 0.00 86 1014.6
20260508113124 58 181 0.0 3.0 0.00 0.00 0.00 88 1014.6
20260508112143 57 157 2.0 3.0 0.00 0.00 0.00 88 1014.4
20260508111125 57 157 0.0 0.0 0.00 0.00 0.00 89 1014.6
20260508110124 57 157 1.0 5.0 0.00 0.00 0.00 88 1014.4
20260508105140 58 157 0.0 0.0 0.00 0.00 0.00 89 1014.6
20260508104125 58 157 0.0 0.0 0.00 0.00 0.00 88 1014.4
20260508102224 58 157 0.0 0.0 0.00 0.00 0.00 89 1014.0
20260508101226 59 180 0.0 0.0 0.00 0.00 0.00 89 1014.1
20260508100324 59 180 0.0 0.0 0.00 0.00 0.00 89 1014.2
20260508095327 59 216 0.0 3.0 0.00 0.00 0.00 90 1014.0
20260508092524 59 292 0.0 1.0 0.00 0.00 0.00 89 1014.3
20260508091523 59 360 0.0 0.0 0.00 0.00 0.00 89 1014.2
20260508090623 58 315 0.0 0.0 0.00 0.00 0.00 90 1014.2
20260508085625 58 315 0.0 0.0 0.00 0.00 0.00 90 1014.1
20260508084623 59 292 1.0 2.0 0.00 0.00 0.00 90 1014.3
20260508083624 59 157 0.0 0.0 0.00 0.00 0.00 90 1014.0
20260508082626 59 157 2.0 3.0 0.00 0.00 0.00 89 1014.2
20260508081625 59 157 0.0 0.0 0.00 0.00 0.00 89 1014.2
20260508080626 59 157 1.0 3.0 0.00 0.00 0.00 89 1014.4
20260508074725 59 157 0.0 1.0 0.00 0.00 0.00 89 1015.0
20260508073725 59 157 1.0 2.0 0.00 0.00 0.00 88 1015.0
20260508072725 59 157 0.0 0.0 0.00 0.00 0.00 89 1015.3
20260508071726 59 270 1.0 2.0 0.00 0.00 0.00 89 1015.5
20260508070726 59 317 0.0 1.0 0.00 0.00 0.00 88 1015.5
20260508065726 59 294 2.0 3.0 0.00 0.00 0.00 88 1015.6
20260508063824 59 157 0.0 0.0 0.00 0.00 0.00 86 1015.5
20260508060840 59 157 0.0 0.0 0.00 0.00 0.00 82 1015.4
20260508055939 59 157 0.0 0.0 0.00 0.00 0.00 80 1015.5
20260508054023 59 202 0.0 0.0 0.00 0.00 0.00 80 1015.5
20260508053023 59 201 1.0 2.0 0.00 0.00 0.00 81 1016.0
20260508052025 59 202 2.0 4.0 0.00 0.00 0.00 81 1015.9
20260508050050 59 157 0.0 0.0 0.00 0.00 0.00 81 1015.7
20260508045133 59 157 1.0 3.0 0.00 0.00 0.00 80 1015.6
20260508044148 60 247 0.0 0.0 0.00 0.00 0.00 80 1015.7
20260508043151 60 157 0.0 0.0 0.00 0.00 0.00 79 1015.8
20260508042235 60 157 0.0 0.0 0.00 0.00 0.00 79 1015.7
20260508041332 60 157 0.0 0.0 0.00 0.00 0.00 79 1015.8
20260508040333 60 204 2.0 4.0 0.00 0.00 0.00 79 1016.0
20260508035432 60 157 0.0 1.0 0.00 0.00 0.00 79 1015.6
20260508032435 60 157 0.0 0.0 0.00 0.00 0.00 77 1015.5
20260508031453 61 157 0.0 0.0 0.00 0.00 0.00 76 1015.3
20260508030451 61 157 0.0 0.0 0.00 0.00 0.00 76 1015.2
20260508025435 61 157 0.0 0.0 0.00 0.00 0.00 75 1015.0
20260508024448 61 157 0.0 0.0 0.00 0.00 0.00 74 1015.0
20260508023434 61 157 0.0 1.0 0.00 0.00 0.00 75 1014.9
20260508021534 62 157 0.0 1.0 0.00 0.00 0.00 73 1014.8
20260508014635 63 157 0.0 1.0 0.00 0.00 0.00 71 1014.7
20260508013734 64 157 0.0 0.0 0.00 0.00 0.00 70 1014.8
20260508012736 64 157 1.0 3.0 0.00 0.00 0.00 68 1014.8
20260508010734 65 180 0.0 2.0 0.00 0.00 0.00 67 1014.8
20260508005749 65 157 2.0 4.0 0.00 0.00 0.00 66 1014.7
20260508004833 66 159 2.0 4.0 0.00 0.00 0.00 65 1014.9
20260508003932 67 165 3.0 6.0 0.00 0.00 0.00 63 1014.9
20260508002935 67 159 2.0 4.0 0.00 0.00 0.00 61 1014.7
20260508001050 69 157 3.0 5.0 0.00 0.00 0.00 58 1014.9
20260508000134 69 169 3.0 6.0 0.00 0.00 0.00 57 1014.8
20260507235134 69 207 0.0 0.0 0.00 0.00 0.00 56 1015.0
20260507234134 69 167 2.0 5.0 0.00 0.00 0.00 56 1014.9
20260507233132 69 179 5.0 8.0 0.00 0.00 0.00 57 1015.1
20260507232132 70 160 6.0 9.0 0.00 0.00 0.00 56 1014.9
20260507231134 70 176 3.0 6.0 0.00 0.00 0.00 51 1015.1
20260507225232 70 176 3.0 6.0 0.00 0.00 0.00 52 1015.2
20260507223232 69 159 3.0 5.0 0.00 0.00 0.00 50 1015.5
20260507222235 69 157 4.0 6.0 0.00 0.00 0.00 52 1015.4
20260507221333 69 151 2.0 3.0 0.00 0.00 0.00 49 1015.5
20260507220336 70 157 5.0 7.0 0.00 0.00 0.00 50 1015.5
20260507215333 70 144 4.0 5.0 0.00 0.00 0.00 49 1015.4
20260507214334 71 149 5.0 6.0 0.00 0.00 0.00 47 1015.5
20260507213432 71 153 4.0 5.0 0.00 0.03 0.00 48 1015.6
20260507212436 71 133 1.0 3.0 0.00 0.03 0.00 48 1015.7
20260507211534 71 148 5.0 7.0 0.00 0.03 0.00 48 1016.0
20260507210533 72 137 3.0 5.0 0.00 0.03 0.00 48 1016.1
20260507205533 72 142 3.0 7.0 0.00 0.03 0.00 46 1016.3
20260507204534 71 114 2.0 5.0 0.00 0.03 0.00 46 1016.2
20260507203532 71 101 4.0 5.0 0.00 0.03 0.00 45 1016.2
20260507202549 71 344 0.0 2.0 0.00 0.03 0.00 46 1016.1
20260507201534 71 33 1.0 6.0 0.00 0.03 0.00 46 1015.8
20260507194634 70 65 4.0 6.0 0.00 0.03 0.00 46 1016.7
20260507193731 69 90 1.0 4.0 0.00 0.03 0.00 47 1016.7
20260507192733 70 72 6.0 8.0 0.00 0.03 0.00 45 1016.8
20260507191832 70 6 6.0 10.0 0.00 0.03 0.00 47 1017.1
20260507190834 69 31 7.0 9.0 0.00 0.03 0.00 46 1017.4